Location: Wald
(31.7579°N, 86.6655°W)
Time: 10:51:01
(UTC+00:00)

CZ-4C R/B - Pass Details

Date: 14 July 2020
Orbit: 632 x 1370 km, 63.4° (Epoch: 08 August)

Event Time Altitude Azimuth Distance (km) Brightness Sun altitude
Rises 05:32:47 0° 330° (NNW) 4,004 6.5 -36.4°
Reaches altitude 10° 05:35:22 10° 330° (NNW) 3,130 5.8 -36.5°
Enters shadow 05:42:00 70° 324° (NW) 1,370 3.2 -36.6°
